Dewpoint
70 70 71 71 72 71 71 70 70 69 69 69 69 69 70 70 71 71 66 60 59 58 59 61 60 59 57 57 54 56 57 56 56 57 58 58 58 58 58 58 58 58 60 59 58 59 60 59 59 59 59 58 58 58 58 58 58 58 59 58 58 58 58 58 56 57 58 57 57 57 58 58 58 59 59 61 61 62 62 61 62 61 61 62 63
69 70 70 71 71 71 71 70 70 69 69 69 70 70 70 71 72 65 62 60 59 59 59 57 57 55 54 54 54 55 56 57 56 57 58 58 58 57 56 58 59 59 59 59 59 59 59 59 59 59 59 59 59 58 58 58 58 58 58 59 58 58 59 58 57 57 56 57 57 58 58 59 58 59 59 60 61 62 60 60 60 61 61 62 63
69 70 70 70 71 71 70 70 70 70 69 70 70 70 71 72 69 63 62 61 60 59 57 55 55 54 54 56 55 54 56 56 57 58 58 58 58 57 57 58 59 58 58 59 59 59 59 60 59 59 58 58 58 58 58 58 58 58 58 58 58 58 59 59 58 57 56 57 58 57 58 59 59 58 59 60 62 61 61 60 59 60 61 61 62
70 69 70 70 70 70 70 70 70 70 69 69 69 71 71 71 68 64 63 62 57 57 54 52 54 55 54 55 55 55 56 57 58 58 58 59 59 58 58 58 58 58 59 59 59 60 60 60 59 59 59 58 58 57 57 58 58 58 58 58 59 59 59 59 59 58 57 56 58 57 58 58 59 59 59 60 61 60 60 61 60 59 60 60 61
69 69 70 70 70 70 70 70 69 70 70 70 70 70 71 69 67 63 61 58 56 53 55 54 53 53 52 54 55 56 56 57 57 57 58 59 59 59 58 59 59 59 60 61 62 60 61 60 60 60 59 58 57 56 56 56 58 59 58 58 59 59 59 59 59 58 58 57 57 59 59 58 59 60 60 59 60 60 60 60 59 59 60 60 60
69 69 70 70 70 70 70 70 70 70 70 70 71 71 71 68 65 62 59 56 54 53 54 54 55 55 55 56 56 56 57 57 57 57 57 58 59 59 59 60 59 59 60 60 60 61 61 61 60 61 58 58 57 58 58 57 58 58 59 59 59 59 59 59 59 59 58 58 58 57 59 58 59 59 59 60 59 58 59 59 59 59 59 58 60
69 69 70 70 70 70 70 70 71 70 71 70 70 70 69 65 63 62 60 56 52 53 54 56 56 55 56 56 56 57 57 57 58 57 57 58 59 59 59 60 60 60 60 60 60 61 61 61 61 60 59 59 59 59 59 59 59 59 61 60 60 59 59 59 59 58 58 57 57 57 57 60 58 58 60 60 60 60 58 58 58 59 60 59 60
69 70 70 69 69 70 71 71 71 70 69 70 70 70 68 66 64 63 60 56 53 52 52 54 56 56 57 58 59 60 59 58 58 58 58 59 60 59 60 60 60 60 60 60 60 60 61 62 61 60 61 61 61 60 61 60 61 60 60 61 61 60 59 58 58 58 57 57 56 56 56 57 58 59 59 60 59 59 58 58 57 58 58 60 60
70 70 69 69 69 70 71 71 70 70 69 69 69 69 68 66 64 63 61 58 57 56 55 56 57 57 57 58 58 59 59 59 59 59 58 58 59 60 60 60 60 60 60 59 60 61 61 60 61 60 61 61 63 62 62 61 61 61 62 61 61 60 59 59 58 57 57 57 57 57 56 56 57 57 57 58 57 57 59 59 58 58 58 59 60
70 69 69 69 70 71 71 70 69 69 69 69 69 69 67 65 63 62 60 59 59 59 58 58 57 56 57 58 58 58 58 61 63 64 65 60 58 59 60 60 61 61 61 60 60 60 60 58 59 61 62 62 62 61 62 62 62 61 63 62 61 61 60 59 59 58 57 57 56 56 56 56 56 56 56 58 59 59 58 58 57 57 58 58 60
69 69 69 70 70 70 70 69 69 69 69 70 70 69 67 65 63 61 60 59 59 60 57 56 56 57 57 58 58 58 59 61 64 64 67 66 60 59 60 60 61 61 60 60 61 61 58 58 57 59 62 62 61 61 61 62 61 62 61 61 61 63 61 59 59 58 58 57 57 57 56 56 57 57 57 58 58 59 58 58 57 57 56 55 55
69 69 70 70 70 70 70 69 69 69 70 70 70 69 66 64 62 61 59 59 60 56 55 56 56 57 57 58 58 59 59 61 63 63 64 64 63 61 59 60 60 60 59 59 60 60 59 58 58 58 58 60 61 60 59 61 62 62 62 62 62 62 62 62 61 59 59 58 57 57 57 57 58 58 58 58 59 58 58 58 57 56 56 56 56
69 69 70 70 70 70 70 69 69 69 70 69 69 68 65 63 62 60 59 59 58 56 56 55 56 56 56 57 57 60 57 59 63 62 64 63 63 61 59 59 60 59 59 59 60 60 60 59 58 57 57 60 61 60 59 58 60 61 61 61 62 62 62 62 62 62 60 59 58 58 58 59 58 59 60 60 60 59 58 57 57 57 57 57 57
69 70 70 70 70 70 70 70 69 69 69 69 68 67 65 63 63 62 61 60 58 57 55 56 56 56 57 59 58 59 58 59 62 62 63 63 62 61 58 60 60 59 60 59 60 60 60 59 57 57 57 58 60 61 59 58 58 58 58 58 58 59 61 63 63 63 62 61 60 59 60 61 59 60 61 61 60 59 59 58 59 58 58 58 59
69 70 69 70 69 69 69 69 68 68 68 68 68 67 66 65 64 63 61 59 58 56 55 55 56 59 59 58 59 59 58 59 62 61 62 62 62 61 59 60 60 59 59 59 60 60 60 59 59 57 57 58 61 60 60 58 58 58 58 57 57 58 60 60 60 61 61 61 61 61 61 62 61 62 62 62 61 61 61 60 59 59 59 59 58
69 69 69 69 69 69 69 69 69 68 68 68 68 68 68 66 65 64 62 61 60 59 57 57 58 58 59 58 58 57 56 59 61 60 61 61 61 59 59 59 59 59 59 60 60 60 59 60 58 57 58 58 60 60 62 60 58 58 57 57 57 58 59 61 61 62 63 62 62 62 62 62 63 63 63 62 62 62 62 61 61 59 58 56 56
69 69 69 68 68 68 68 68 69 68 68 67 67 67 67 67 67 65 61 60 59 58 57 57 60 58 59 59 58 57 54 58 60 60 61 60 59 57 59 60 59 59 59 59 59 59 60 59 58 58 58 59 59 59 61 59 58 58 58 57 57 58 59 59 61 62 62 62 62 62 62 62 62 62 62 62 62 62 61 59 58 58 57 56 56
69 70 69 68 68 68 68 68 68 68 68 67 67 67 68 68 68 65 60 59 59 59 59 59 60 60 60 58 57 55 54 58 58 59 59 60 61 56 57 58 59 60 60 61 59 60 59 62 62 60 60 60 59 59 60 60 58 58 58 57 57 57 58 59 59 61 61 61 61 61 62 62 62 62 62 62 62 62 59 57 58 58 57 56 55
69 69 69 69 68 68 68 68 68 68 68 67 68 68 68 68 69 65 62 60 60 60 62 60 59 59 60 59 61 58 52 57 57 56 59 60 60 55 57 57 59 59 59 60 60 59 59 62 61 63 60 60 59 58 58 60 59 59 58 57 57 57 58 59 60 60 60 60 60 61 62 61 61 61 62 62 62 61 59 58 59 58 57 57 57
68 69 69 69 69 69 69 69 68 68 67 67 68 67 68 68 66 63 61 60 60 60 63 60 59 59 59 62 60 61 55 54 62 55 58 59 59 57 56 58 59 58 58 59 59 59 58 59 62 62 61 61 59 57 56 57 60 60 59 57 57 57 59 60 60 61 59 60 60 59 60 60 60 61 60 60 59 60 60 59 59 58 57 56 56
69 69 69 69 69 69 69 69 69 68 68 68 68 69 68 66 64 62 60 60 60 60 60 59 59 59 59 60 60 60 57 55 60 57 57 60 60 59 56 58 58 59 59 61 60 59 59 59 59 61 61 60 59 56 54 55 58 61 60 58 58 59 61 61 60 61 60 60 60 60 60 61 60 60 59 59 59 58 58 58 59 59 58 56 56
70 70 70 70 70 70 70 69 69 69 69 69 69 68 67 66 64 61 60 59 59 59 59 61 59 58 58 58 60 60 60 61 55 60 57 57 58 61 58 59 60 59 59 59 59 58 58 58 59 59 59 59 58 55 54 54 56 61 61 56 56 59 61 61 60 60 61 61 59 59 59 59 60 59 60 58 59 59 59 58 59 58 58 58 57
70 70 70 70 70 70 70 71 70 70 69 69 68 67 66 66 64 62 60 59 59 58 58 58 59 59 58 58 59 61 60 61 62 60 58 55 56 59 61 62 61 61 59 59 58 58 57 59 59 61 59 57 55 54 54 55 59 60 56 55 57 60 60 60 60 60 61 60 59 58 59 59 59 59 60 60 59 59 58 58 58 57 57 57 57
70 71 71 70 70 70 71 71 70 70 70 68 67 66 65 64 64 63 61 60 59 59 58 58 59 59 59 59 59 60 61 60 61 62 61 57 55 55 57 58 60 61 59 58 58 58 58 58 60 58 56 53 52 53 55 59 60 57 55 57 60 60 60 59 58 59 60 59 60 59 59 60 59 59 60 60 60 59 59 59 58 58 57 57 56
71 70 70 70 70 70 70 70 70 70 69 68 67 65 64 63 62 61 62 60 60 59 59 59 59 59 59 60 60 60 61 60 60 62 62 61 56 54 55 57 58 58 59 60 61 60 59 56 55 55 55 54 55 56 58 62 59 57 57 60 60 59 60 59 58 58 59 58 59 59 60 60 60 61 61 61 62 61 60 59 59 58 58 57 56
70 69 69 70 70 70 69 69 69 69 68 67 67 65 64 63 62 60 60 59 59 59 59 59 59 60 59 59 59 59 60 61 61 60 62 63 60 56 56 57 60 61 61 62 64 62 58 57 57 57 59 59 62 62 63 63 62 63 62 60 59 59 59 59 59 58 58 58 59 59 60 61 61 62 62 61 60 60 59 59 58 57 57 56 56
71 70 69 69 69 69 69 69 69 69 67 66 66 66 65 63 63 63 61 59 59 60 60 62 61 61 61 60 61 62 62 61 61 60 60 61 63 61 59 59 60 59 64 61 61 57 60 61 61 58 59 60 63 63 64 65 64 61 60 59 59 58 59 59 59 58 58 58 58 59 59 60 62 61 60 60 60 60 61 59 56 55 56 56 56
69 68 68 69 69 69 70 72 70 69 69 66 65 64 64 64 62 62 62 60 59 59 60 61 61 61 61 62 63 62 62 61 61 61 59 59 61 61 59 60 58 59 58 55 53 56 58 61 57 59 59 60 61 61 62 62 62 60 58 59 58 58 58 58 58 59 58 58 58 59 60 60 59 59 59 59 59 58 59 58 57 56 56 56 54
70 68 68 68 69 71 70 72 70 69 69 69 67 66 65 64 64 63 63 63 61 60 60 59 62 61 62 62 62 60 60 60 62 60 62 58 60 60 59 58 57 55 58 56 57 56 57 56 57 57 57 57 58 58 58 59 59 58 58 58 57 57 57 57 56 57 58 58 58 59 58 58 58 59 58 58 58 58 58 57 57 57 56 56 53
70 68 68 68 69 72 70 70 70 70 69 68 67 63 61 57 59 63 63 65 59 54 58 62 60 56 54 54 58 58 57 59 55 50 52 52 53 54 57 55 54 56 55 51 57 56 55 53 54 54 55 56 56 57 58 58 58 57 57 57 58 58 58 58 57 57 57 58 58 58 58 58 58 58 58 57 58 58 58 57 56 57 56 54 54
70 69 69 69 70 70 70 68 68 69 69 69 67 66 65 60 46 48 54 61 55 47 44 46 49 54 56 56 58 54 53 50 47 47 49 50 50 49 47 46 46 46 48 56 56 54 52 53 53 54 54 55 55 56 57 58 58 57 56 56 56 57 57 57 57 57 57 57 57 57 57 57 57 57 57 57 57 57 58 57 56 56 55 54 53
69 69 69 69 71 71 69 69 69 67 67 67 65 65 64 63 62 52 46 51 52 48 45 43 44 47 50 54 60 60 53 47 44 45 45 45 45 42 41 41 42 43 45 50 54 52 53 53 53 53 54 54 55 57 58 58 57 57 57 56 56 57 57 56 57 56 56 56 56 56 57 57 57 57 58 57 59 58 57 55 55 55 55 54 54
68 68 69 70 72 72 69 70 70 68 67 65 64 63 62 62 61 62 63 49 48 47 45 44 43 44 45 45 50 52 49 47 43 42 42 41 40 40 41 41 41 41 48 53 52 50 52 53 53 54 54 54 55 55 56 57 57 57 56 56 56 57 57 58 56 56 57 57 57 56 56 57 58 58 58 58 58 57 57 56 55 55 55 54 53
68 68 69 69 68 68 68 68 69 68 68 67 65 63 64 63 62 63 63 65 66 58 48 46 45 44 46 46 46 45 44 43 43 42 42 42 42 42 43 45 40 39 48 53 54 53 53 53 53 54 54 54 55 55 56 57 57 57 57 57 57 56 56 55 55 56 57 57 56 56 56 56 57 56 56 56 57 58 57 56 55 55 54 53 52
67 72 72 70 67 68 68 68 68 67 67 68 68 68 66 66 66 66 66 64 64 64 65 63 49 46 56 51 45 43 41 42 43 42 42 43 43 42 45 52 53 52 51 51 52 52 52 53 53 53 54 54 54 55 56 57 57 57 57 57 57 56 56 55 56 57 57 56 56 56 56 56 56 56 56 56 56 55 56 56 56 55 55 54 53
69 69 69 69 68 67 67 67 67 67 67 67 68 69 70 69 68 68 67 66 66 65 66 65 60 53 46 42 41 41 41 41 42 42 42 42 42 44 53 52 52 53 53 54 54 54 54 54 54 54 54 54 55 55 56 56 57 57 57 57 57 57 57 56 57 57 57 57 55 57 56 56 56 55 55 55 56 55 55 56 56 56 55 54 52
67 67 67 67 67 68 68 67 67 68 70 70 69 68 70 70 70 68 68 67 68 68 67 66 62 62 59 58 50 43 42 42 42 41 42 42 42 49 50 52 51 52 54 53 54 55 55 55 56 56 56 56 56 56 56 56 57 57 58 58 58 57 56 56 56 57 57 56 56 56 56 55 55 55 55 55 55 56 55 56 56 56 55 54 53
66 66 66 66 66 66 67 68 70 69 70 69 68 68 69 68 68 68 67 67 68 67 66 65 65 64 63 60 57 52 49 44 42 42 42 42 47 50 50 51 54 54 53 53 54 54 54 54 54 54 55 54 55 56 56 56 57 57 57 58 58 57 57 57 58 58 57 56 56 56 56 56 56 55 55 55 55 56 56 56 56 55 55 55 54
66 67 68 68 68 68 68 67 67 66 66 64 66 68 68 67 67 66 65 65 65 65 64 63 62 61 61 58 57 57 54 53 54 56 54 52 52 51 51 51 51 52 52 53 53 54 55 54 55 56 56 56 56 57 57 57 57 57 57 57 57 57 57 58 58 58 57 57 56 56 55 55 55 55 55 56 56 56 55 55 55 55 55 54 54
64 66 68 68 68 68 67 67 65 64 66 64 65 65 66 65 64 64 64 63 63 63 62 61 60 59 59 58 57 55 55 55 55 55 56 56 56 55 54 52 52 53 53 53 53 54 56 55 55 55 56 56 56 57 58 58 57 57 57 57 57 57 57 57 57 57 56 57 56 56 55 55 55 56 56 55 55 55 55 55 56 56 55 54 54
66 67 67 65 65 65 66 65 64 63 63 63 63 63 64 64 63 63 62 62 61 61 61 61 60 60 58 53 51 53 57 58 58 59 60 59 58 58 57 55 55 55 56 57 58 59 59 58 58 57 57 57 57 57 58 58 58 58 58 57 57 57 58 57 56 56 56 56 56 56 55 55 55 55 54 55 55 56 55 55 55 55 54 55 54
61 62 63 65 65 64 63 63 63 64 63 63 62 62 63 63 63 62 62 61 61 60 59 59 60 61 57 52 49 49 59 60 61 61 61 61 61 61 61 61 62 62 62 63 63 63 62 62 62 61 60 59 58 58 58 58 59 57 57 57 58 59 58 56 56 56 56 55 56 55 55 55 55 55 55 55 56 55 55 55 55 54 54 54 53
64 62 63 64 63 63 62 62 62 61 62 62 62 63 62 61 60 61 60 61 60 59 59 59 59 60 58 54 55 55 58 58 60 59 59 59 59 59 59 59 60 61 62 64 64 64 63 62 61 62 61 60 60 59 59 59 58 58 57 58 58 58 57 57 57 56 56 56 55 55 56 55 56 56 56 56 56 56 55 55 55 54 54 54 54
63 63 64 63 63 63 63 62 62 63 63 63 62 61 60 59 59 59 58 58 58 58 58 57 58 58 57 57 56 56 57 57 57 57 57 58 57 58 58 58 59 60 61 62 62 60 59 59 59 59 60 61 62 62 60 59 58 57 57 57 57 57 57 57 57 57 56 56 56 56 55 55 55 56 56 56 56 55 55 55 55 55 54 54 54
60 61 60 60 61 61 61 62 61 61 61 60 60 59 59 58 58 58 57 57 57 57 56 57 56 56 56 56 56 56 56 56 57 57 56 56 56 57 57 57 57 58 59 61 57 57 56 56 56 57 57 58 60 60 59 60 59 59 57 58 57 58 58 58 58 57 57 57 56 56 55 55 55 55 55 55 56 56 55 55 55 55 55 54 54
60 61 61 60 61 61 60 60 61 59 59 59 58 58 58 58 57 57 57 57 57 56 56 56 55 55 55 55 55 55 55 55 55 56 56 55 55 55 56 56 56 57 58 60 57 56 55 56 54 55 55 56 58 59 60 59 60 60 59 58 57 57 58 59 58 58 57 57 56 56 55 55 55 55 56 55 55 55 55 56 56 55 55 55 55
60 60 60 60 60 60 60 60 59 59 58 58 58 57 57 57 57 57 58 57 56 56 55 55 55 54 54 55 54 54 54 54 55 55 55 55 55 55 55 56 56 56 56 58 57 56 55 54 54 54 54 54 56 56 57 58 58 58 59 59 58 57 57 58 58 59 58 57 57 56 55 55 55 55 56 57 56 55 56 55 55 56 56 55 54
60 60 60 61 60 60 61 60 60 60 58 58 58 57 57 57 56 56 56 55 55 55 54 54 54 54 54 54 54 54 54 54 54 54 54 53 53 54 54 55 55 55 55 57 55 55 54 54 54 53 53 54 55 53 52 52 53 52 52 51 48 47 48 50 57 58 58 57 57 57 56 55 55 55 55 56 57 56 55 55 55 55 55 55 54
59 59 59 59 59 59 59 59 59 58 58 58 57 56 56 55 55 55 55 55 54 54 54 53 53 53 53 53 53 53 53 53 52 52 52 52 52 53 53 54 55 55 55 53 52 52 53 53 53 53 52 52 54 52 51 50 49 48 46 45 44 44 44 44 48 53 51 56 57 56 56 56 55 55 55 55 56 56 56 56 55 55 55 55 55
60 61 60 60 59 59 59 58 58 57 57 57 56 56 56 55 55 55 54 54 54 53 53 53 53 52 52 52 53 52 52 52 52 51 51 51 51 52 52 53 54 53 51 51 50 51 51 52 51 51 51 51 52 51 49 48 48 47 45 44 42 42 42 42 43 43 43 51 55 56 55 55 56 55 55 55 55 55 55 55 55 55 54 55 54
61 60 60 59 58 58 57 57 57 56 56 56 55 55 54 54 54 54 54 53 53 53 53 52 52 52 52 52 52 52 52 52 51 51 51 51 50 51 51 52 52 51 50 49 49 49 49 50 50 49 48 48 49 49 48 47 46 45 45 43 41 40 40 39 40 41 41 41 48 54 55 55 55 55 55 55 55 55 54 55 55 55 54 54 54